SCP
4 4 3 3 3 3 3 3 3 4 4 3 3 3 3 3 2 3 3 2 2 2 2 2 2 2 2 2 2 2 2 2 2 2 2 2 2 2 2 2 1 1 1
4 4 4 3 3 3 3 3 4 4 4 4 3 3 3 3 2 3 4 3 3 2 2 2 2 2 2 2 2 3 3 2 2 2 2 2 2 2 2 2 2 1 1
4 4 4 3 3 3 3 3 4 4 4 4 4 4 4 3 3 4 5 4 3 3 2 2 3 3 3 3 3 3 3 2 2 2 2 2 2 2 2 2 2 2 2
4 4 3 3 3 4 3 3 3 4 4 4 4 4 4 4 4 4 5 4 4 3 3 3 3 4 4 3 3 3 3 3 3 3 2 3 4 4 3 3 2 2 3
4 3 3 3 3 3 3 3 3 3 3 3 3 4 4 5 4 4 4 4 4 3 3 3 3 4 4 4 4 4 4 4 4 3 3 3 5 6 6 5 4 3 3
3 3 3 3 3 3 3 4 4 4 3 3 3 4 4 5 5 4 5 4 3 3 3 3 3 4 4 4 4 4 4 4 5 5 4 4 5 6 6 6 5 4 4
3 3 3 3 3 3 3 4 5 5 4 4 4 4 4 5 5 5 5 5 4 3 4 4 4 4 4 4 4 4 4 4 5 5 6 6 6 6 6 6 6 5 5
3 3 3 3 3 3 3 4 5 6 5 5 4 4 4 4 4 4 5 5 4 4 4 5 4 4 4 4 4 4 4 4 5 6 7 7 7 7 7 6 6 5 5
3 3 4 3 3 3 3 4 5 6 6 6 5 4 3 3 3 4 4 5 5 5 6 6 5 4 4 5 5 5 5 5 6 6 7 7 8 8 7 6 5 6 6
3 4 4 4 3 4 4 5 7 8 7 6 6 5 4 3 3 3 4 5 5 6 6 6 5 4 5 6 7 7 6 6 7 7 7 7 7 6 5 5 5 5 5
5 6 6 5 5 5 5 6 8 8 8 7 7 6 6 5 4 4 4 5 6 7 7 6 5 4 5 7 8 8 8 8 8 7 7 6 6 5 4 4 4 5 4
7 8 9 8 7 6 6 7 8 8 8 7 7 7 6 5 5 4 5 6 8 8 8 6 5 5 5 6 7 8 8 8 8 8 8 7 6 5 4 4 4 4 4
8 9 10 10 9 8 7 8 9 9 8 7 7 7 6 6 5 5 6 8 9 9 8 7 6 6 6 6 7 7 7 7 8 8 8 8 7 6 5 4 4 4 4
7 7 9 9 10 9 8 9 11 11 10 9 7 7 6 6 6 6 7 9 10 10 9 8 7 7 8 8 7 6 5 5 5 6 7 8 8 7 6 5 4 4 3
5 6 7 8 9 9 10 12 15 17 15 11 8 7 8 7 6 6 8 10 12 12 10 9 9 10 10 9 7 5 4 3 3 3 4 5 6 7 6 5 4 4 3
5 6 7 8 10 12 14 17 21 21 18 12 8 8 8 8 7 8 9 12 13 13 12 11 11 11 9 7 5 4 4 3 2 2 2 2 4 5 5 4 4 3 3
5 6 7 10 12 16 19 21 22 20 15 10 8 8 8 9 9 10 11 12 13 14 14 13 12 9 7 5 4 3 3 3 2 2 2 2 2 3 4 4 3 3 2
6 6 8 10 14 17 19 20 18 14 11 9 9 10 10 10 10 11 12 13 14 14 14 13 11 8 5 4 3 2 3 3 3 2 2 1 1 2 3 4 4 3 2
7 7 8 11 13 15 16 15 13 11 10 10 11 12 12 12 12 13 14 14 15 15 14 12 10 7 6 4 2 1 2 2 3 2 2 2 1 1 1 2 3 2 2
8 8 9 11 13 13 14 13 11 10 10 10 11 14 15 15 16 16 16 16 16 16 15 14 11 8 5 3 1 1 2 2 3 3 3 2 1 1 1 1 2 2 2
8 8 9 11 13 13 14 14 12 12 11 11 12 15 16 18 18 19 18 18 17 18 17 15 12 8 5 2 1 1 1 2 3 3 3 2 2 1 1 1 1 1 1
8 9 10 10 12 13 15 15 15 15 15 15 15 16 17 18 21 22 22 20 18 18 16 14 11 8 6 3 1 0 1 1 2 3 3 2 1 1 0 1 1 1 1
10 10 11 10 11 13 15 17 17 18 18 18 18 17 17 19 21 24 23 20 17 16 14 12 10 9 8 5 2 1 0 1 1 2 2 1 1 0 0 1 1 1 1
13 13 12 11 11 12 13 16 18 20 19 19 19 18 17 18 20 21 21 18 15 13 12 10 9 9 9 7 4 3 2 1 1 1 1 1 0 0 1 1 1 1 2
16 16 13 11 11 12 11 13 17 19 18 17 16 15 15 15 16 16 15 13 11 9 8 7 6 6 7 5 4 4 4 3 1 1 1 1 1 1 1 1 2 2 2
18 17 14 11 11 11 11 11 14 16 16 15 13 12 12 13 13 12 10 8 7 6 5 4 4 4 3 2 2 4 5 5 2 1 1 1 1 1 1 1 2 2 2
Wind_Speed
11 10 9 9 8 7 6 4 3 3 2 1 1 2 2 2 1 2 3 2 1 1 1 0 1 1 1 1 1 1 1 1 2 1 1 1 2 2 1 1 1 2 3
12 11 10 9 9 7 6 5 4 4 3 2 2 1 2 1 2 2 3 2 1 1 2 1 1 1 1 1 1 1 1 2 2 1 1 0 0 0 1 1 1 1 2
13 12 11 10 9 9 7 6 5 4 3 3 2 2 2 0 1 2 2 2 1 1 0 1 1 1 1 1 1 1 2 2 2 2 2 1 1 0 1 0 1 1 2
14 13 12 10 10 9 8 6 5 4 3 3 2 2 2 2 2 2 2 2 2 1 1 1 1 0 1 0 1 1 1 2 2 2 1 1 2 2 1 0 1 1 1
14 13 13 11 10 10 10 8 6 5 3 2 2 1 1 1 2 2 2 2 2 2 1 1 1 1 1 0 1 1 1 1 1 2 1 1 1 2 2 1 1 1 1
13 12 12 11 10 10 10 10 8 6 5 4 3 2 2 1 2 2 2 2 2 2 2 2 1 0 0 0 1 1 1 1 1 1 1 1 1 1 1 2 2 1 1
14 13 12 12 11 11 10 10 9 7 6 5 3 3 3 2 2 1 2 1 1 2 2 1 1 0 0 0 1 1 1 1 1 1 2 2 2 1 1 2 2 1 1
13 13 12 11 11 11 10 10 10 8 7 5 4 3 3 2 2 2 1 1 1 2 2 2 1 0 0 0 0 1 1 1 1 2 1 2 1 1 1 1 2 2 1
13 13 13 11 11 11 10 10 10 8 7 7 5 4 3 2 1 2 2 1 1 2 2 2 2 1 0 1 1 0 1 1 0 1 1 1 2 1 1 1 2 2 2
12 12 13 13 11 10 9 8 9 8 7 6 6 6 5 4 2 1 2 2 1 2 1 1 1 1 1 1 0 0 1 1 1 1 1 1 1 1 1 0 1 1 2
12 11 11 12 11 11 10 9 8 8 7 6 5 4 5 4 4 2 2 1 1 1 1 1 1 1 1 1 0 0 0 1 1 1 1 1 1 1 1 1 0 1 2
11 11 12 11 10 11 11 10 9 8 7 6 5 5 4 4 3 3 2 2 2 1 1 1 1 1 1 1 1 0 1 1 1 1 1 1 1 1 1 1 1 1 2
9 9 10 10 9 9 9 10 9 9 8 7 6 5 5 4 3 3 3 2 2 2 2 1 2 1 2 1 1 1 1 1 1 1 1 1 1 1 1 1 1 1 2
7 7 7 8 8 8 8 8 8 9 9 8 7 6 5 4 4 3 3 3 2 2 2 2 2 2 2 1 1 1 1 1 1 1 1 2 2 2 1 1 1 1 2
7 6 7 7 6 7 7 8 8 7 8 8 8 7 6 5 4 4 3 2 2 3 2 2 2 1 2 1 2 0 1 1 1 1 2 3 4 5 3 2 2 2 1
5 5 6 7 6 6 6 7 7 7 6 7 7 6 6 5 5 4 4 3 2 2 2 1 1 2 3 4 5 3 1 1 1 1 1 3 4 5 5 5 5 3 2
3 3 4 5 5 6 6 6 7 7 7 6 6 7 6 6 5 5 4 3 3 3 2 2 2 3 4 5 5 4 1 1 1 1 1 1 3 3 2 3 4 4 4
2 1 3 4 6 7 7 6 6 7 7 7 7 7 7 6 5 5 4 4 3 3 2 2 3 4 3 3 3 4 0 1 1 1 1 2 3 2 2 2 3 3 2
3 1 1 3 4 5 6 6 6 6 7 7 6 6 6 6 6 5 5 4 3 3 3 3 3 3 2 1 2 2 1 1 2 2 2 2 3 3 3 2 2 2 2
2 2 1 2 3 4 5 6 6 6 6 6 6 6 6 6 5 5 4 4 4 3 3 3 3 3 3 1 1 1 1 1 2 2 3 3 2 2 1 1 2 2 1
3 2 2 1 3 4 5 5 5 5 4 5 5 6 5 5 5 5 4 4 4 4 3 3 3 3 3 3 1 1 0 0 1 2 2 2 3 1 1 1 1 2 1
3 3 2 2 2 4 5 5 4 3 4 4 5 5 5 5 5 5 5 5 4 4 4 3 3 3 3 3 3 2 1 0 0 1 2 2 3 2 2 1 1 0 1
2 2 2 2 2 3 4 4 3 4 4 4 4 4 4 3 4 5 5 4 4 4 4 4 4 4 3 3 3 4 2 1 0 1 3 3 4 2 2 3 3 2 2
1 1 1 1 2 2 3 3 4 5 5 5 4 4 4 4 4 3 3 4 4 4 4 4 3 3 3 3 3 3 2 2 2 2 2 4 3 2 2 2 3 3 2
1 1 1 1 2 2 2 3 4 4 5 4 4 4 4 4 3 3 1 2 1 2 2 2 3 3 3 3 4 3 2 2 2 2 2 2 3 3 3 3 3 3 2
1 1 1 1 2 2 2 3 3 4 4 4 4 4 4 4 4 4 2 4 2 3 4 2 2 2 3 5 6 5 4 3 3 2 3 3 3 3 3 3 3 3 2
Wind_Direction
153 151 153 150 147 142 140 140 143 138 145 143 161 168 169 173 157 150 131 131 152 139 164 339 157 203 212 196 196 191 211 219 189 219 258 251 215 188 169 181 176 171 163
152 153 156 154 151 147 146 148 150 149 153 159 174 176 169 180 155 126 118 136 154 185 183 190 228 210 190 199 224 217 224 246 209 191 188 205 302 340 180 159 163 151 122
157 158 162 160 157 152 154 155 151 151 161 168 175 176 146 126 95 124 132 155 161 190 163 160 200 247 191 197 210 230 239 241 252 218 196 193 197 108 23 135 140 134 118
157 159 162 163 161 155 153 145 144 145 151 163 179 174 157 158 158 152 144 144 142 166 141 144 157 235 233 214 248 209 259 250 267 276 261 236 166 166 178 21 42 89 91
158 161 163 163 161 158 155 150 144 145 149 162 168 171 157 161 151 139 133 140 144 147 123 123 146 206 218 223 274 301 284 273 274 282 284 278 228 194 172 186 180 89 84
156 158 161 158 160 159 156 154 149 153 157 166 171 165 176 161 124 129 137 167 156 142 127 126 136 155 228 240 262 271 267 262 265 279 289 271 257 217 187 180 176 164 131
154 159 166 158 161 161 159 155 152 160 166 172 175 167 181 172 157 169 163 170 132 126 120 120 129 179 213 190 282 256 269 266 271 261 272 278 263 248 203 180 166 154 137
156 160 159 159 163 163 159 156 156 162 169 172 169 164 169 180 180 178 168 137 130 117 125 131 141 151 309 301 293 288 280 265 272 268 274 294 301 291 209 185 155 148 137
156 159 161 165 165 163 159 159 157 163 170 171 165 161 162 164 157 144 167 144 118 133 129 136 143 153 187 296 319 351 327 346 306 305 301 288 300 313 266 176 172 163 165
163 167 164 166 163 160 155 155 157 162 167 169 172 166 167 168 169 150 120 111 107 92 109 112 126 139 136 86 74 43 342 18 7 2 27 342 319 323 317 215 185 161 155
158 162 162 160 158 158 158 157 157 161 164 165 162 155 158 165 163 156 148 137 129 130 134 138 122 102 73 66 95 140 28 50 39 12 19 348 341 346 346 1 82 134 131
156 157 157 156 159 163 163 161 161 164 164 164 158 153 152 155 160 150 141 143 142 140 127 141 126 125 99 73 46 34 66 57 46 10 1 1 8 6 8 32 70 98 125
145 149 152 155 159 160 159 161 166 166 165 162 155 153 155 154 153 143 144 141 137 128 119 121 117 107 100 97 85 96 86 79 55 21 27 29 19 11 36 61 84 124 128
137 147 146 150 154 154 155 158 163 165 164 162 160 159 158 156 147 142 138 138 140 138 133 123 116 112 107 93 96 117 114 118 99 62 54 48 43 32 20 75 70 102 115
144 157 153 144 146 151 159 161 163 163 163 163 164 162 160 153 149 146 142 138 141 136 131 135 138 127 110 50 16 326 129 119 110 91 83 83 78 67 56 70 72 88 108
152 149 147 147 152 156 164 163 161 159 156 162 161 154 154 155 155 155 153 142 133 119 121 117 92 78 69 48 39 26 63 70 80 86 94 122 109 97 83 76 78 89 121
126 140 154 154 161 164 165 166 165 162 163 162 161 159 163 163 165 165 153 145 139 125 120 113 99 88 67 44 33 25 20 86 64 61 49 74 92 98 92 100 101 81 81
46 134 164 164 170 164 161 161 166 166 167 169 167 167 169 166 162 161 158 154 150 141 128 121 113 107 89 46 24 359 340 108 100 89 68 71 90 63 58 99 103 98 71
27 24 159 165 160 159 158 159 168 169 171 172 169 167 168 167 169 169 165 158 152 144 147 144 130 121 111 55 14 358 262 140 118 108 85 84 93 56 59 106 112 108 113
35 32 51 130 148 155 152 161 170 173 178 175 169 164 167 168 169 165 160 156 154 159 156 143 138 139 134 136 30 343 234 160 141 120 110 88 100 99 70 150 144 134 128
33 48 64 85 140 146 148 162 170 180 175 163 160 161 165 164 161 156 158 158 160 160 157 147 148 147 149 152 145 26 245 138 174 153 141 123 126 123 149 186 152 156 201
30 38 51 65 107 131 145 160 168 164 150 155 159 159 160 172 163 158 162 163 165 167 168 169 172 162 159 159 172 174 177 262 350 98 109 123 141 132 140 140 118 353 287
27 38 54 67 95 116 140 155 143 134 140 147 152 153 160 159 155 168 172 170 175 192 189 186 187 176 165 161 175 182 192 184 96 75 106 141 162 153 174 199 220 238 246
28 46 93 108 108 117 138 144 143 137 144 156 156 159 164 167 160 169 178 186 194 200 197 193 187 178 173 170 175 180 181 175 171 166 156 175 198 236 248 210 216 226 232
63 74 111 123 126 122 133 137 136 146 159 163 161 167 173 172 158 158 143 186 181 215 202 200 189 188 187 181 167 171 172 166 145 163 179 190 196 209 217 217 218 219 213
102 103 104 116 128 132 132 129 134 156 166 173 174 180 183 169 170 169 144 58 77 98 95 102 133 112 131 150 152 156 158 152 149 177 214 216 210 214 217 216 218 219 217